Gainesville, GA

4:06 PM EDT on September 28, 2016 (GMT -0400)
Gilmer Memorial

Weather History for KGVL - January, 2013

Change the Weather History Date:

Wednesday, January 16, 2013

  Actual Average Record
Temperature  
Mean Temperature 56 °F 42 °F  
Max Temperature 62 °F 50 °F 76 °F (1952)
Min Temperature 51 °F 33 °F 5 °F (1972)
Degree Days  
Heating Degree Days 8 24  
Month to date heating degree days 384  
Since 1 July heating degree days 1580  
Growing Degree Days 6 (Base 50)    
Moisture  
Dew Point 53 °F    
Average Humidity 97    
Maximum Humidity 100    
Minimum Humidity 90    
Precipitation  
Precipitation 0.48 in 0.17 in 3.32 in (1954)
Month to date precipitation 2.21  
Year to date precipitation 2.21  
Sea Level Pressure  
Sea Level Pressure 29.98 in    
Wind  
Wind Speed 4 mph (ESE)    
Max Wind Speed 8 mph    
Max Gust Speed -    
Visibility 4 miles    
Events Fog , Rain    
T = Trace of Precipitation, MM = Missing Value Source: NWS Daily Summary

Daily Weather History Graph

Daily Weather History Graph

Search for Another Location

Airport or City:

Trip Planner

Search our weather history database for the weather conditions in past years. The results will help you decide how hot, cold, wet, or windy it might be!

Date:

Astronomy

Jan. 16, 2013 Rise Set
Actual Time 7:40 AM EST 5:49 PM EST
Civil Twilight 7:13 AM EST 6:17 PM EST
Nautical Twilight 6:42 AM EST 6:47 PM EST
Astronomical Twilight 6:12 AM EST 7:17 PM EST
Moon 10:33 AM EST (1/16) 11:22 PM EST (1/16)
Length of Visible Light 11h 03m
Length of Day
10h 09m
Waxing Crescent, 28% of the Moon is Illuminated
Jan 16
Waxing Crescent
Jan 18
First Quarter
Jan 26
Full
Feb 3
Last Quarter
Feb 10
New

Hourly Weather History & Observations

Time (EST) Temp. Dew Point Humidity Pressure Visibility Wind Dir Wind Speed Gust Speed Precip Events Conditions
12:15 AM 62.6 °F 60.8 °F 94% 29.99 in 5.0 mi South 5.8 mph - 0.00 in Rain Light Rain
12:32 AM 62.6 °F 60.8 °F 94% 29.98 in 2.0 mi SSE 4.6 mph - 0.00 in   Overcast
12:37 AM 62.6 °F 60.8 °F 94% 29.98 in 1.5 mi Variable 4.6 mph - 0.00 in   Overcast
12:46 AM 62.6 °F 60.8 °F 94% 29.98 in 0.8 mi SE 5.8 mph - 0.00 in Rain Light Rain
12:53 AM 62.1 °F 61.0 °F 96% 29.96 in 0.8 mi SSE 4.6 mph - 0.01 in Rain Light Rain
1:53 AM 57.0 °F 55.9 °F 96% 29.97 in 0.2 mi ESE 5.8 mph - 0.00 in Fog Fog
2:53 AM 54.0 °F 53.1 °F 97% 29.96 in 0.2 mi East 6.9 mph - 0.00 in Fog , Rain Light Rain
3:53 AM 52.0 °F 51.1 °F 97% 29.96 in 0.2 mi East 5.8 mph - 0.00 in Fog , Rain Light Rain
4:42 AM 51.8 °F 51.8 °F 100% 29.96 in 1.2 mi ESE 5.8 mph - 0.06 in Rain Rain
4:45 AM 51.8 °F 51.8 °F 100% 29.95 in 2.0 mi ESE 6.9 mph - 0.07 in Rain Light Rain
4:47 AM 51.8 °F 51.8 °F 100% 29.95 in 2.5 mi ESE 6.9 mph - 0.07 in Rain Light Rain
4:50 AM 51.8 °F 51.8 °F 100% 29.95 in 2.5 mi ESE 5.8 mph - 0.07 in Rain Light Rain
4:53 AM 52.0 °F 51.1 °F 97% 29.94 in 2.5 mi ESE 5.8 mph - 0.08 in Rain Light Rain
5:01 AM 51.8 °F 51.8 °F 100% 29.95 in 2.0 mi East 8.1 mph - 0.02 in Rain Light Rain
5:06 AM 51.8 °F 51.8 °F 100% 29.94 in 3.0 mi East 8.1 mph - 0.02 in Rain Light Rain
5:19 AM 51.8 °F 51.8 °F 100% 29.94 in 4.0 mi ESE 6.9 mph - 0.03 in Rain Light Rain
5:23 AM 51.8 °F 51.8 °F 100% 29.94 in 2.5 mi East 6.9 mph - 0.04 in Rain Light Rain
5:27 AM 51.8 °F 51.8 °F 100% 29.94 in 2.0 mi ESE 6.9 mph - 0.05 in Rain Rain
5:53 AM 51.1 °F 50.0 °F 96% 29.92 in 2.5 mi East 6.9 mph - 0.10 in Rain Light Rain
6:09 AM 51.8 °F 51.8 °F 100% 29.96 in 2.0 mi Calm Calm - 0.05 in Rain Light Rain
6:13 AM 51.8 °F 51.8 °F 100% 29.96 in 3.0 mi SE 4.6 mph - 0.05 in Rain Light Rain
6:53 AM 52.0 °F 51.1 °F 97% 29.95 in 3.0 mi North 8.1 mph - 0.08 in Rain Light Rain
7:01 AM 51.8 °F 51.8 °F 100% 29.97 in 4.0 mi NE 5.8 mph - 0.00 in Rain Light Rain
7:38 AM 51.8 °F 50.0 °F 94% 29.98 in 3.0 mi ENE 4.6 mph - 0.03 in Rain Light Rain
7:45 AM 51.8 °F 50.0 °F 94% 29.98 in 2.5 mi ENE 3.5 mph - 0.04 in Rain Light Rain
7:53 AM 51.1 °F 50.0 °F 96% 29.97 in 3.0 mi NNE 4.6 mph - 0.05 in Rain Rain
7:58 AM 51.8 °F 51.8 °F 100% 29.99 in 2.0 mi Calm Calm - 0.01 in Rain Rain
8:21 AM 51.8 °F 51.8 °F 100% 30.00 in 3.0 mi East 3.5 mph - 0.04 in Rain Light Rain
8:53 AM 52.0 °F 51.1 °F 97% 30.00 in 6.0 mi Calm Calm - 0.04 in   Overcast
9:27 AM 51.8 °F 51.8 °F 100% 30.02 in 2.0 mi Calm Calm - 0.02 in Rain Light Rain
9:30 AM 51.8 °F 51.8 °F 100% 30.03 in 1.5 mi Calm Calm - 0.02 in Rain Rain
9:40 AM 51.8 °F 51.8 °F 100% 30.03 in 2.0 mi East 3.5 mph - 0.03 in Rain Light Rain
9:51 AM 51.8 °F 51.8 °F 100% 30.02 in 2.5 mi East 4.6 mph - 0.04 in Rain Light Rain
9:53 AM 52.0 °F 51.1 °F 97% 30.01 in 3.0 mi East 4.6 mph - 0.04 in Rain Light Rain
10:09 AM 51.8 °F 51.8 °F 100% 30.02 in 2.0 mi East 4.6 mph - 0.01 in Rain Light Rain
10:16 AM 51.8 °F 51.8 °F 100% 30.02 in 3.0 mi ESE 3.5 mph - 0.01 in Rain Light Rain
10:34 AM 53.6 °F 51.8 °F 94% 30.03 in 2.0 mi SE 3.5 mph - 0.02 in Rain Light Rain
10:36 AM 53.6 °F 51.8 °F 94% 30.02 in 2.5 mi SE 4.6 mph - 0.02 in Rain Light Rain
10:45 AM 53.6 °F 51.8 °F 94% 30.02 in 5.0 mi Calm Calm - 0.02 in Rain Light Rain
10:53 AM 53.1 °F 52.0 °F 96% 30.01 in 8.0 mi Calm Calm - 0.02 in   Overcast
11:02 AM 53.6 °F 53.6 °F 100% 30.02 in 10.0 mi Calm Calm - N/A   Overcast
11:11 AM 53.6 °F 51.8 °F 94% 30.02 in 10.0 mi Calm Calm - N/A   Overcast
11:53 AM 54.0 °F 53.1 °F 97% 29.98 in 6.0 mi SSE 4.6 mph - N/A   Overcast
12:53 PM 55.9 °F 54.0 °F 93% 29.97 in 10.0 mi Calm Calm - 0.00 in   Overcast
1:22 PM 55.4 °F 55.4 °F 100% 29.99 in 2.5 mi Calm Calm - 0.01 in Rain Light Rain
1:32 PM 57.2 °F 55.4 °F 94% 29.98 in 5.0 mi Calm Calm - 0.01 in Rain Light Rain
1:49 PM 57.2 °F 55.4 °F 94% 29.98 in 4.0 mi Calm Calm - 0.01 in Rain Light Rain
1:53 PM 57.0 °F 55.9 °F 96% 29.96 in 3.0 mi Calm Calm - 0.01 in Rain Light Rain
2:19 PM 57.2 °F 55.4 °F 94% 29.98 in 2.0 mi Calm Calm - 0.01 in Rain Light Rain
2:30 PM 57.2 °F 55.4 °F 94% 29.98 in 3.0 mi NW 5.8 mph - 0.01 in Rain Light Rain
2:53 PM 57.9 °F 55.9 °F 93% 29.96 in 10.0 mi Variable 4.6 mph - 0.01 in   Overcast
3:08 PM 57.2 °F 55.4 °F 94% 29.97 in 10.0 mi West 4.6 mph - N/A   Overcast
3:53 PM 57.9 °F 55.9 °F 93% 29.96 in 10.0 mi WSW 3.5 mph - N/A   Overcast
4:03 PM 57.2 °F 55.4 °F 94% 29.97 in 10.0 mi Calm Calm - N/A   Overcast
4:53 PM 59.0 °F 55.9 °F 90% 29.96 in 10.0 mi Calm Calm - N/A   Overcast
5:53 PM 57.9 °F 55.9 °F 93% 29.98 in 10.0 mi SW 4.6 mph - 0.01 in   Overcast
6:53 PM 57.0 °F 55.0 °F 93% 29.98 in 10.0 mi Calm Calm - N/A   Overcast
7:53 PM 55.9 °F 55.0 °F 97% 29.99 in 10.0 mi Calm Calm - N/A   Overcast
8:53 PM 55.9 °F 54.0 °F 93% 30.00 in 5.0 mi West 3.5 mph - 0.02 in Rain Light Rain
9:31 PM 55.4 °F 53.6 °F 94% 30.01 in 7.0 mi West 4.6 mph - 0.00 in   Overcast
9:53 PM 55.0 °F 54.0 °F 96% 29.99 in 6.0 mi WNW 4.6 mph - 0.00 in Rain Light Rain
10:35 PM 55.4 °F 53.6 °F 94% 29.98 in 9.0 mi Calm Calm - 0.01 in   Overcast
10:46 PM 55.4 °F 53.6 °F 94% 29.98 in 9.0 mi Calm Calm - 0.01 in   Overcast
10:53 PM 55.0 °F 53.1 °F 93% 29.97 in 8.0 mi NW 3.5 mph - 0.01 in   Overcast
11:35 PM 53.6 °F 53.6 °F 100% 29.99 in 8.0 mi Calm Calm - 0.00 in   Overcast
11:44 PM 53.6 °F 53.6 °F 100% 29.98 in 7.0 mi Calm Calm - 0.00 in   Overcast
11:53 PM 54.0 °F 53.1 °F 97% 29.97 in 7.0 mi Calm Calm - 0.00 in   Overcast